Time,TemperatureF,DewpointF,PressureIn,WindDirection,WindDirectionDegrees,WindSpeedMPH,WindSpeedGustMPH,Humidity,HourlyPrecipIn,Conditions,Clouds,dailyrainin,SoftwareType,DateUTC
2013-04-06 00:05:00,65.0,-99.9,-100.00,North,356,7.0,9.0,-999,-99.99,,,-99.99,,2013-04-06 07:05:00,
2013-04-06 00:12:00,65.0,-99.9,-100.00,North,356,7.0,9.0,-999,-99.99,,,-99.99,,2013-04-06 07:12:00,
2013-04-06 00:23:00,65.0,-99.9,-100.00,NNW,329,8.0,8.0,-999,-99.99,,,-99.99,,2013-04-06 07:23:00,
2013-04-06 00:35:00,65.0,-99.9,-100.00,NNW,329,8.0,8.0,-999,-99.99,,,-99.99,,2013-04-06 07:35:00,
2013-04-06 01:02:00,64.0,-99.9,-100.00,North,6,5.0,7.0,-999,-99.99,,,-99.99,,2013-04-06 08:02:00,
2013-04-06 01:13:00,64.0,-99.9,-100.00,North,6,5.0,7.0,-999,-99.99,,,-99.99,,2013-04-06 08:13:00,
2013-04-06 01:22:00,64.0,-99.9,-100.00,North,6,5.0,7.0,-999,-99.99,,,-99.99,,2013-04-06 08:22:00,
2013-04-06 02:10:00,61.0,-99.9,-100.00,NNE,16,8.0,9.0,-999,-99.99,,,-99.99,,2013-04-06 09:10:00,
2013-04-06 02:22:00,61.0,-99.9,-100.00,SSW,206,3.0,3.0,-999,-99.99,,,-99.99,,2013-04-06 09:22:00,
2013-04-06 02:33:00,61.0,-99.9,-100.00,NNE,13,9.0,9.0,-999,-99.99,,,-99.99,,2013-04-06 09:33:00,
2013-04-06 02:43:00,61.0,-99.9,-100.00,NNE,13,9.0,9.0,-999,-99.99,,,-99.99,,2013-04-06 09:43:00,
2013-04-06 02:54:00,61.0,-99.9,-100.00,NNE,16,8.0,9.0,-999,-99.99,,,-99.99,,2013-04-06 09:54:00,
2013-04-06 03:04:00,61.0,-99.9,-100.00,NNE,16,8.0,9.0,-999,-99.99,,,-99.99,,2013-04-06 10:04:00,
2013-04-06 03:34:00,60.0,-99.9,-100.00,SE,142,4.0,8.0,-999,-99.99,,,-99.99,,2013-04-06 10:34:00,
2013-04-06 03:43:00,60.0,-99.9,-100.00,SE,142,4.0,8.0,-999,-99.99,,,-99.99,,2013-04-06 10:43:00,
2013-04-06 03:54:00,59.0,-99.9,-100.00,ESE,117,1.0,6.0,-999,-99.99,,,-99.99,,2013-04-06 10:54:00,
2013-04-06 04:03:00,59.0,-99.9,-100.00,ESE,123,2.0,7.0,-999,-99.99,,,-99.99,,2013-04-06 11:03:00,
2013-04-06 04:13:00,59.0,-99.9,-100.00,ESE,123,2.0,7.0,-999,-99.99,,,-99.99,,2013-04-06 11:13:00,
2013-04-06 04:23:00,59.0,-99.9,-100.00,NNE,19,6.0,6.0,-999,-99.99,,,-99.99,,2013-04-06 11:23:00,
2013-04-06 04:33:00,59.0,-99.9,-100.00,NNE,19,6.0,6.0,-999,-99.99,,,-99.99,,2013-04-06 11:33:00,
2013-04-06 05:03:00,58.0,-99.9,-100.00,SSE,164,6.0,6.0,-999,-99.99,,,-99.99,,2013-04-06 12:03:00,
2013-04-06 05:10:00,58.0,-99.9,-100.00,NNE,13,8.0,8.0,-999,-99.99,,,-99.99,,2013-04-06 12:10:00,
2013-04-06 05:13:00,58.0,-99.9,-100.00,SSE,164,6.0,6.0,-999,-99.99,,,-99.99,,2013-04-06 12:13:00,
2013-04-06 05:22:00,58.0,-99.9,-100.00,East,98,2.0,8.0,-999,-99.99,,,-99.99,,2013-04-06 12:22:00,
2013-04-06 05:33:00,58.0,-99.9,-100.00,WNW,302,0.0,2.0,-999,-99.99,,,-99.99,,2013-04-06 12:33:00,
2013-04-06 05:44:00,58.0,-99.9,-100.00,WNW,302,0.0,2.0,-999,-99.99,,,-99.99,,2013-04-06 12:44:00,
2013-04-06 05:53:00,58.0,-99.9,-100.00,NNE,13,8.0,8.0,-999,-99.99,,,-99.99,,2013-04-06 12:53:00,
2013-04-06 06:03:00,58.0,-99.9,-100.00,NNE,13,8.0,8.0,-999,-99.99,,,-99.99,,2013-04-06 13:03:00,
2013-04-06 06:05:00,58.0,-99.9,-100.00,North,354,9.0,11.0,-999,-99.99,,,-99.99,,2013-04-06 13:05:00,
2013-04-06 06:33:00,57.0,-99.9,-100.00,ENE,57,4.0,11.0,-999,-99.99,,,-99.99,,2013-04-06 13:33:00,
2013-04-06 06:40:00,58.0,-99.9,-100.00,ENE,61,4.0,8.0,-999,-99.99,,,-99.99,,2013-04-06 13:40:00,
2013-04-06 06:44:00,57.0,-99.9,-100.00,ENE,57,4.0,11.0,-999,-99.99,,,-99.99,,2013-04-06 13:44:00,
2013-04-06 06:54:00,58.0,-99.9,-100.00,North,354,9.0,11.0,-999,-99.99,,,-99.99,,2013-04-06 13:54:00,
2013-04-06 07:23:00,58.0,-99.9,-100.00,ENE,61,4.0,8.0,-999,-99.99,,,-99.99,,2013-04-06 14:23:00,
2013-04-06 07:33:00,58.0,-99.9,-100.00,ENE,61,4.0,8.0,-999,-99.99,,,-99.99,,2013-04-06 14:33:00,
2013-04-06 07:40:00,62.0,-99.9,-100.00,ESE,117,0.0,4.0,-999,-99.99,,,-99.99,,2013-04-06 14:40:00,
2013-04-06 08:23:00,62.0,-99.9,-100.00,ESE,117,0.0,4.0,-999,-99.99,,,-99.99,,2013-04-06 15:23:00,
2013-04-06 08:34:00,62.0,-99.9,-100.00,ESE,117,0.0,4.0,-999,-99.99,,,-99.99,,2013-04-06 15:34:00,
2013-04-06 08:40:00,66.0,-99.9,-100.00,West,276,2.0,7.0,-999,-99.99,,,-99.99,,2013-04-06 15:40:00,
2013-04-06 09:23:00,66.0,-99.9,-100.00,West,276,2.0,7.0,-999,-99.99,,,-99.99,,2013-04-06 16:23:00,
2013-04-06 09:33:00,66.0,-99.9,-100.00,West,276,2.0,7.0,-999,-99.99,,,-99.99,,2013-04-06 16:33:00,
2013-04-06 09:53:00,68.0,-99.9,-100.00,NNE,13,6.0,8.0,-999,-99.99,,,-99.99,,2013-04-06 16:53:00,
2013-04-06 10:03:00,69.0,-99.9,-100.00,NNW,345,10.0,13.0,-999,-99.99,,,-99.99,,2013-04-06 17:03:00,
2013-04-06 10:13:00,69.0,-99.9,-100.00,NNW,345,10.0,13.0,-999,-99.99,,,-99.99,,2013-04-06 17:13:00,
2013-04-06 10:23:00,69.0,-99.9,-100.00,NNW,345,10.0,13.0,-999,-99.99,,,-99.99,,2013-04-06 17:23:00,
2013-04-06 10:53:00,71.0,-99.9,-100.00,North,351,5.0,12.0,-999,-99.99,,,-99.99,,2013-04-06 17:53:00,
2013-04-06 11:04:00,71.0,-99.9,-100.00,North,351,5.0,12.0,-999,-99.99,,,-99.99,,2013-04-06 18:04:00,
2013-04-06 13:53:00,80.0,-99.9,-100.00,NNW,332,3.0,5.0,-999,-99.99,,,-99.99,,2013-04-06 20:53:00,
2013-04-06 14:03:00,80.0,-99.9,-100.00,NNW,332,3.0,5.0,-999,-99.99,,,-99.99,,2013-04-06 21:03:00,
2013-04-06 14:53:00,81.0,-99.9,-100.00,NW,316,5.0,5.0,-999,-99.99,,,-99.99,,2013-04-06 21:53:00,
2013-04-06 15:03:00,81.0,-99.9,-100.00,North,357,4.0,7.0,-999,-99.99,,,-99.99,,2013-04-06 22:03:00,
2013-04-06 15:14:00,81.0,-99.9,-100.00,North,357,4.0,7.0,-999,-99.99,,,-99.99,,2013-04-06 22:14:00,
2013-04-06 15:23:00,81.0,-99.9,-100.00,North,351,6.0,13.0,-999,-99.99,,,-99.99,,2013-04-06 22:23:00,
2013-04-06 15:35:00,82.0,-99.9,-100.00,North,7,6.0,10.0,-999,-99.99,,,-99.99,,2013-04-06 22:35:00,
2013-04-06 15:40:00,83.0,-99.9,-100.00,NW,312,7.0,7.0,-999,-99.99,,,-99.99,,2013-04-06 22:40:00,
2013-04-06 15:44:00,82.0,-99.9,-100.00,North,7,6.0,10.0,-999,-99.99,,,-99.99,,2013-04-06 22:44:00,
2013-04-06 15:55:00,82.0,-99.9,-100.00,WSW,241,2.0,8.0,-999,-99.99,,,-99.99,,2013-04-06 22:55:00,
2013-04-06 16:10:00,83.0,-99.9,-100.00,WNW,300,8.0,12.0,-999,-99.99,,,-99.99,,2013-04-06 23:10:00,
2013-04-06 16:14:00,83.0,-99.9,-100.00,North,9,8.0,13.0,-999,-99.99,,,-99.99,,2013-04-06 23:14:00,
2013-04-06 16:24:00,83.0,-99.9,-100.00,NW,312,7.0,7.0,-999,-99.99,,,-99.99,,2013-04-06 23:24:00,
2013-04-06 16:35:00,83.0,-99.9,-100.00,NW,312,7.0,7.0,-999,-99.99,,,-99.99,,2013-04-06 23:35:00,
2013-04-06 16:54:00,83.0,-99.9,-100.00,WNW,300,8.0,12.0,-999,-99.99,,,-99.99,,2013-04-06 23:54:00,
2013-04-06 17:03:00,83.0,-99.9,-100.00,WNW,300,8.0,12.0,-999,-99.99,,,-99.99,,2013-04-07 00:03:00,
2013-04-06 17:50:00,83.0,-99.9,-100.00,NW,309,6.0,8.0,-999,-99.99,,,-99.99,,2013-04-07 00:50:00,
2013-04-06 17:54:00,83.0,-99.9,-100.00,WNW,290,5.0,10.0,-999,-99.99,,,-99.99,,2013-04-07 00:54:00,
2013-04-06 18:03:00,83.0,-99.9,-100.00,NNW,340,8.0,12.0,-999,-99.99,,,-99.99,,2013-04-07 01:03:00,
2013-04-06 18:12:00,83.0,-99.9,-100.00,NNW,340,8.0,12.0,-999,-99.99,,,-99.99,,2013-04-07 01:12:00,
2013-04-06 18:24:00,83.0,-99.9,-100.00,WNW,289,6.0,12.0,-999,-99.99,,,-99.99,,2013-04-07 01:24:00,
2013-04-06 18:33:00,83.0,-99.9,-100.00,NW,309,6.0,8.0,-999,-99.99,,,-99.99,,2013-04-07 01:33:00,
2013-04-06 18:43:00,83.0,-99.9,-100.00,NW,309,6.0,8.0,-999,-99.99,,,-99.99,,2013-04-07 01:43:00,
2013-04-06 19:13:00,82.0,-99.9,-100.00,NW,319,5.0,12.0,-999,-99.99,,,-99.99,,2013-04-07 02:13:00,
2013-04-06 19:24:00,82.0,-99.9,-100.00,NNW,335,8.0,10.0,-999,-99.99,,,-99.99,,2013-04-07 02:24:00,
2013-04-06 19:33:00,82.0,-99.9,-100.00,NNW,335,8.0,10.0,-999,-99.99,,,-99.99,,2013-04-07 02:33:00,
2013-04-06 20:23:00,78.0,-99.9,-100.00,NNW,343,0.0,6.0,-999,-99.99,,,-99.99,,2013-04-07 03:23:00,
2013-04-06 20:35:00,77.0,-99.9,-100.00,North,350,1.0,4.0,-999,-99.99,,,-99.99,,2013-04-07 03:35:00,
2013-04-06 20:44:00,77.0,-99.9,-100.00,North,350,1.0,4.0,-999,-99.99,,,-99.99,,2013-04-07 03:44:00,
2013-04-06 20:55:00,76.0,-99.9,-100.00,NNW,333,3.0,4.0,-999,-99.99,,,-99.99,,2013-04-07 03:55:00,
2013-04-06 21:03:00,76.0,-99.9,-100.00,North,350,0.0,3.0,-999,-99.99,,,-99.99,,2013-04-07 04:03:00,
2013-04-06 21:15:00,76.0,-99.9,-100.00,North,350,0.0,3.0,-999,-99.99,,,-99.99,,2013-04-07 04:15:00,
2013-04-06 21:23:00,76.0,-99.9,-100.00,North,350,0.0,3.0,-999,-99.99,,,-99.99,,2013-04-07 04:23:00,
2013-04-06 21:32:00,75.0,-99.9,-100.00,East,87,1.0,2.0,-999,-99.99,,,-99.99,,2013-04-07 04:32:00,
2013-04-06 21:43:00,75.0,-99.9,-100.00,East,87,1.0,2.0,-999,-99.99,,,-99.99,,2013-04-07 04:43:00,
2013-04-06 21:53:00,74.0,-99.9,-100.00,NNE,17,9.0,10.0,-999,-99.99,,,-99.99,,2013-04-07 04:53:00,
2013-04-06 22:02:00,73.0,-99.9,-100.00,North,6,4.0,6.0,-999,-99.99,,,-99.99,,2013-04-07 05:02:00,
2013-04-06 22:12:00,73.0,-99.9,-100.00,North,6,4.0,6.0,-999,-99.99,,,-99.99,,2013-04-07 05:12:00,
2013-04-06 22:23:00,73.0,-99.9,-100.00,NW,326,2.0,3.0,-999,-99.99,,,-99.99,,2013-04-07 05:23:00,
2013-04-06 22:34:00,72.0,-99.9,-100.00,NNW,331,2.0,4.0,-999,-99.99,,,-99.99,,2013-04-07 05:34:00,
2013-04-06 22:43:00,72.0,-99.9,-100.00,NNW,331,2.0,4.0,-999,-99.99,,,-99.99,,2013-04-07 05:43:00,
2013-04-06 22:53:00,71.0,-99.9,-100.00,North,349,4.0,6.0,-999,-99.99,,,-99.99,,2013-04-07 05:53:00,
2013-04-06 23:02:00,71.0,-99.9,-100.00,NNE,27,2.0,5.0,-999,-99.99,,,-99.99,,2013-04-07 06:02:00,
2013-04-06 23:13:00,71.0,-99.9,-100.00,NNE,27,2.0,5.0,-999,-99.99,,,-99.99,,2013-04-07 06:13:00,
2013-04-06 23:22:00,71.0,-99.9,-100.00,NNE,27,2.0,5.0,-999,-99.99,,,-99.99,,2013-04-07 06:22:00,